Showing default

COSMOS 2248, 22649

Orbit data source: Space-Track

COSMOS 2248, 22649 is a payload satellite owned by VKS (CIS) in LEO that was launched on Tue, 11 May 1993 UTC via a TSIKLON-3 launch vehicle from the Plesetsk Missile And Space Complex (PKMTR). Payload-class satellites include a variety of spacecraft equipped with specific instruments for various scientific and technological missions. These include communications satellites like Starlink; space stations such as the ISS; scientific satellites like the Hubble; Earth observation satellites from companies like Planet Labs, Umbra, and HawkEye 360; GPS; miniature CubeSats for education and research; and military/defense satellites.

Loading next visibility...
Identifier
22649, 1993-030D
Orbit
LEO
Country
Flag of CISCIS
Related business
Manufacturer
NPO PM
Mission
Defense Communications
Bus & Motor
STRELA-3, Unknown motor
Mass
225 kg wet, 225 kg dry
Launch date (UTC)
1993-05-11 (33 years ago)
Launch vehicle
TSIKLON-3
Launch site
Plesetsk Missile And Space Complex (PKMTR)
Object type
Payload
Rocket body
Debris
Shape & HBR
Cyl, 0.8 m
Radar Cross Section
1.257 m², Medium (>0.1 m² and < 1m²)

Expand to show TLE details & history
Last TLE update: 13 hours ago

TLE from 13 hours ago
0 COSMOS 2248
1 22649U 93030D   26034.51935617  .00000018  00000-0  38712-4 0  9994
2 22649  82.5767  36.7937 0008212 231.8334 128.2019 12.63518842509537
Epoch: 2026-02-03T12:27Z
TLE epoch observation values (Epoch: 2026-02-03T12:27:52.373Z)
Latitude
0.00005°
Longitude
76.12636°
Altitude
1,415.144 km
Speed
7.151 km/s
True Right ascension
02h 27m 10s
True Declination
0° 00' 00"
Sunlit
Object was in daylight at epoch
Visualization orbit readout
Latitude
Unknown
Longitude
Unknown
Altitude
Unknown
Speed
Unknown
Apparent Right ascension
Unknown
Apparent Declination
Unknown
Sunlit
N/A
Visualization observer readout
Local Sidereal Time
03:32:20
Azimuth
Unknown
Elevation
Unknown
Doppler factor
Unknown
Orbital elements
Apogee altitude
1,412.165 km
Perigee altitude
1,399.381 km
Semi-major axis
7,783.91 km
Eccentricity
0.00082
Inclination
82.5767°
RAAN
36.7937°
Arg. of periapsis
231.8334°
True anomaly
128.2758°
Mean anomaly
128.2019°
Eccentric anomaly
128.23886°
Mean motion
3.16043 °/min
Orbital period
113.91 mins
BSTAR
0.000038712
Loading maneuver chart data...
Computing Atmospheric mass density...
Loading historical data...
Loading historical data...
Loading historical data...
Loading historical data...
Loading historical data...
Loading historical data...
Loading historical data...

Documentation

Showing up to 5 results
|